This is the latest recevied weather packets stored in our database for station/object IZ2WYA-13. If no packets are shown the sender has not sent any weather packets the latest 10 day(s).
| Time | Temp. | Humidity | Pressure | Rain* | Wind** | Luminosity | Snow |
|---|---|---|---|---|---|---|---|
| 1788486360 | 24.44° C | 43% | 1022.6 hPa | - | - | - | - |
| 1788484559 | 24.44° C | 42% | 1022.5 hPa | - | - | - | - |
| 1788482758 | 24.44° C | 42% | 1022.4 hPa | - | - | - | - |
| 1788480956 | 24.44° C | 42% | 1022.6 hPa | - | - | - | - |
| 1788479155 | 25° C | 41% | 1022.7 hPa | - | - | - | - |
| 1788477354 | 25° C | 42% | 1022.7 hPa | - | - | - | - |
| 1788475552 | 25.56° C | 42% | 1022.6 hPa | - | - | - | - |
| 1788473751 | 25.56° C | 41% | 1022.4 hPa | - | - | - | - |
| 1788471950 | 26.11° C | 40% | 1022.3 hPa | - | - | - | - |
| 1788470149 | 26.11° C | 40% | 1022.2 hPa | - | - | - | - |
| 1788468347 | 26.11° C | 40% | 1022 hPa | - | - | - | - |
| 1788466546 | 26.67° C | 39% | 1021.5 hPa | - | - | - | - |
| 1788464745 | 26.67° C | 39% | 1021.4 hPa | - | - | - | - |
| 1788462943 | 27.22° C | 40% | 1021 hPa | - | - | - | - |
| 1788461142 | 27.22° C | 39% | 1020.4 hPa | - | - | - | - |
| 1788459340 | 27.22° C | 38% | 1020 hPa | - | - | - | - |
| 1788457539 | 27.78° C | 39% | 1019.4 hPa | - | - | - | - |
| 1788455738 | 27.78° C | 40% | 1019.3 hPa | - | - | - | - |
| 1788453936 | 28.33° C | 41% | 1019 hPa | - | - | - | - |
| 1788452135 | 28.33° C | 41% | 1018.8 hPa | - | - | - | - |
| 1788450334 | 28.33° C | 40% | 1018.7 hPa | - | - | - | - |
| 1788448533 | 28.33° C | 39% | 1018.7 hPa | - | - | - | - |
| 1788446732 | 28.33° C | 39% | 1018.9 hPa | - | - | - | - |
| 1788444931 | 28.33° C | 37% | 1019.2 hPa | - | - | - | - |
| 1788443129 | 27.78° C | 36% | 1019.6 hPa | - | - | - | - |
* Rain since midnight (hover to see other rain measurements)
** Current wind speed in m/s (hover to see current wind gust speed)